Salem, UT (84653)

10:12 PM MST on February 19, 2017 (GMT -0700)
South Valley View | | Change Station

Elev 4793 ft 40.04 °N, 111.67 °W | Updated 5 seconds ago

Partly Cloudy
Partly Cloudy
42.4 °F
Feels Like 42 °F
N
0.0
Wind Variable Wind from West
Gusts 0.0 mph

Today
High -- | Low -- °F
--% Chance of Precip.
Yesterday
High -- | Low -- °F
Precip. -- in
Pressure 29.91 in
Visibility 10.0 miles
Clouds Mostly Cloudy 8000 ft
Windchill 42 °F
Dew Point 36 °F
Humidity 78%
Rainfall 0.14 in
Snow Depth Not available.
7:13 AM 6:07 PM
Last Quarter, 37% visible
METAR KPVU 200456Z AUTO 13006KT 10SM BKN080 04/02 A2993 RMK AO2 SLP129 T00390017
Pressure 29.91 in
Visibility 10.0 miles
Clouds Mostly Cloudy 8000 ft
Windchill 42 °F
Dew Point 36 °F
Humidity 78%
Rainfall 0.14 in
Snow Depth Not available.
7:13 AM 6:07 PM
Last Quarter, 37% visible
METAR KPVU 200456Z AUTO 13006KT 10SM BKN080 04/02 A2993 RMK AO2 SLP129 T00390017

Get Your Daily Forecast Email!

Thanks for signing up!

Be on the lookout for a verification email in your inbox.

You'll start receiving the daily forecast at 8 AM.

×

10-Day Weather Forecast

Almanac

Astronomy

Feb. 19, 2017 Rise Set
Actual Time
Civil Twilight
Nautical Twilight
Astronomical Twilight
Moon
Length of Visible Light
Length of Day
Tomorrow will be .
, % of the Moon is Illuminated

Today's Extremes

State Highs State Lows

Community

WunderPhotos

Upload Photos

1,962,540 photos uploaded!

WunderBlog® & News

Nearby

Air Quality

  Air Quality AQ Index Pollutant
Not available.

Snow Depth

Station Depth Elevation

Earthquake Activity

City Distance Mag. Time & Date
Minimum magnitude displayed is 2.5.

Coastal Water Temperatures

Place Temperature

Stations

Nearby Weather Stations

Station Location Temp. Windchill Dew Point Humidity Wind Precip. Elev Updated Type
                   

Watches & Warnings

There are currently no watches in effect.